TimeMST,TemperatureF,Dew PointF,Humidity,Sea Level PressureIn,VisibilityMPH,Wind Direction,Wind SpeedMPH,Gust SpeedMPH,PrecipitationIn,Events,Conditions,WindDirDegrees,DateUTC
12:53 AM,75.9,69.1,79,29.89,10.0,SSE,3.5,-,N/A,,Clear,150,2012-09-08 07:53:00
1:53 AM,75.9,69.1,79,29.88,10.0,ESE,4.6,-,N/A,,Scattered Clouds,110,2012-09-08 08:53:00
2:53 AM,75.9,69.1,79,29.87,10.0,Calm,Calm,-,N/A,,Clear,0,2012-09-08 09:53:00
3:53 AM,75.9,69.1,79,29.86,10.0,Calm,Calm,-,N/A,,Clear,0,2012-09-08 10:53:00
4:53 AM,75.9,69.1,79,29.88,10.0,Calm,Calm,-,N/A,,Clear,0,2012-09-08 11:53:00
5:53 AM,75.9,69.1,79,29.89,10.0,SSW,3.5,-,N/A,,Clear,200,2012-09-08 12:53:00
6:53 AM,75.9,70.0,82,29.91,10.0,SE,4.6,-,N/A,,Clear,140,2012-09-08 13:53:00
7:53 AM,80.1,68.0,67,29.92,10.0,NE,3.5,-,N/A,,Scattered Clouds,50,2012-09-08 14:53:00
8:53 AM,84.0,63.0,49,29.93,10.0,East,11.5,19.6,N/A,,Clear,90,2012-09-08 15:53:00
9:53 AM,84.0,63.0,49,29.93,10.0,ESE,15.0,24.2,N/A,,Clear,110,2012-09-08 16:53:00
10:53 AM,86.0,62.1,44,29.93,10.0,East,12.7,25.3,N/A,,Partly Cloudy,100,2012-09-08 17:53:00
11:53 AM,87.1,62.1,43,29.91,10.0,ENE,13.8,21.9,N/A,,Scattered Clouds,60,2012-09-08 18:53:00
12:21 PM,89.6,60.8,38,30.04,10.0,East,17.3,24.2,N/A,,Partly Cloudy,100,2012-09-08 19:21:00
12:53 PM,88.0,61.0,40,29.90,10.0,ESE,15.0,27.6,N/A,,Partly Cloudy,120,2012-09-08 19:53:00
1:53 PM,89.1,60.1,38,29.87,10.0,East,13.8,27.6,N/A,,Partly Cloudy,80,2012-09-08 20:53:00
2:53 PM,91.0,60.1,35,29.84,10.0,ESE,17.3,25.3,N/A,,Partly Cloudy,110,2012-09-08 21:53:00
3:53 PM,91.0,59.0,34,29.83,10.0,ESE,19.6,29.9,N/A,,Clear,120,2012-09-08 22:53:00
4:53 PM,87.1,59.0,39,29.83,10.0,ESE,21.9,29.9,N/A,,Clear,120,2012-09-08 23:53:00
5:53 PM,84.9,57.9,40,29.84,10.0,ESE,21.9,29.9,N/A,,Clear,120,2012-09-09 00:53:00
6:53 PM,82.0,57.0,42,29.87,10.0,East,13.8,20.7,N/A,,Mostly Cloudy,80,2012-09-09 01:53:00
7:53 PM,81.0,57.9,45,29.88,10.0,ESE,15.0,24.2,N/A,,Clear,110,2012-09-09 02:53:00
8:53 PM,80.1,57.0,45,29.92,10.0,ESE,17.3,26.5,N/A,,Clear,120,2012-09-09 03:53:00
9:53 PM,79.0,57.0,47,29.92,10.0,ESE,19.6,27.6,N/A,,Clear,110,2012-09-09 04:53:00
10:53 PM,78.1,57.0,48,29.92,10.0,ESE,15.0,23.0,N/A,,Mostly Cloudy,110,2012-09-09 05:53:00
11:53 PM,78.1,57.0,48,29.90,10.0,ESE,16.1,-,N/A,,Clear,110,2012-09-09 06:53:00